Weather in Hradzianka

Belarus     53°32′51″N   28°44′45″E
temp.,
°C
wind,
m/s
gust,
m/s
humid.,
%
clouds,
%
prec.,
mm/h
press.,
hPa
HPBL,
m
11 may, tue
tue1100:00+8se35775 0.0 102579
03:00+6se33775 0.0 102653
06:00+6ese237927 0.0 102649
09:00+12ese3561100 0.0 1025368
12:00+17ese34479 0.0 10241051
15:00+19e443821 0.0 10221301
18:00+18e455396 0.0 1022886
21:00+12e38815 0.0 1021126
12 may, wed
wed1200:00+11e39922 0.0 1021162
03:00+11ese412971 0.0 1021299
06:00+9ese411923 0.0 1022456
09:00+11ese69680 0.0 1022826
12:00+14se68580 0.0 10211200
15:00+16ese58505 0.0 10191693
18:00+16se355359 0.0 10171580
21:00+12ese1272100 0.1 101516
13 may, thu
thu1300:00+9ese4795100 1.4 1014292
03:00+9sse1398100 7.8 1012159
06:00+9ese239699 0.3 1011173
09:00+10e3387100 0.9 1010409
12:00+10sse3792100 1.2 1010498
15:00+10ssw4787100 2.6 1010568
18:00+11ese3788100 0.8 1010467
21:00+10ese3891100 2.0 1010279
14 may, fri
fri1400:00+10se51396100 2.7 1009790
03:00+10se51494100 3.7 1008560
06:00+10se51495100 0.0 1008586
09:00+12se6139299 0.1 1007772
12:00+12se5991100 0.1 1008723
15:00+16sse477418 0.2 1007930
18:00+18s356811 0.1 1006837
21:00+13ssw2287100 0.1 100712
15 may, sat
sat1500:00+11s1191100 0.1 100710
03:00+11wsw229699 0.6 100721
06:00+11sw2397100 1.1 100787
09:00+11w259899 9.1 1007175
12:00+12wsw3594100 0.6 1009316
15:00+17sw346447 0.6 10081190
18:00+16wsw457364 0.4 1008891
21:00+11wsw369581 0.8 1009121